TimeCST,TemperatureF,Dew PointF,Humidity,Sea Level PressureIn,VisibilityMPH,Wind Direction,Wind SpeedMPH,Gust SpeedMPH,PrecipitationIn,Events,Conditions,WindDirDegrees,DateUTC
12:52 AM,34.0,26.1,73,29.85,10.0,SSW,9.2,-,N/A,,Clear,200,2013-02-09 06:52:00
1:52 AM,32.0,26.1,79,29.84,10.0,SSW,11.5,-,N/A,,Clear,210,2013-02-09 07:52:00
2:52 AM,30.0,24.1,79,29.85,10.0,Calm,Calm,-,N/A,,Clear,0,2013-02-09 08:52:00
3:52 AM,27.0,24.1,89,29.83,10.0,WNW,4.6,-,N/A,,Clear,300,2013-02-09 09:52:00
4:52 AM,25.0,23.0,92,29.83,10.0,Calm,Calm,-,N/A,,Clear,0,2013-02-09 10:52:00
5:52 AM,24.1,21.9,91,29.84,10.0,Calm,Calm,-,N/A,,Clear,0,2013-02-09 11:52:00
6:52 AM,21.0,19.0,92,29.85,10.0,Calm,Calm,-,N/A,,Clear,0,2013-02-09 12:52:00
7:52 AM,21.0,19.0,92,29.87,3.0,NNW,3.5,-,N/A,,Scattered Clouds,340,2013-02-09 13:52:00
7:54 AM,21.2,19.4,93,29.80,1.8,NNW,4.6,-,N/A,,Mostly Cloudy,330,2013-02-09 13:54:00
7:57 AM,21.2,21.2,100,29.80,0.8,NNW,3.5,-,N/A,,Mostly Cloudy,340,2013-02-09 13:57:00
8:48 AM,24.8,24.8,100,29.80,1.0,North,6.9,-,N/A,,Overcast,360,2013-02-09 14:48:00
8:52 AM,25.0,24.1,96,29.86,0.8,North,8.1,-,N/A,,Overcast,360,2013-02-09 14:52:00
9:13 AM,26.6,24.8,93,29.79,1.2,North,9.2,-,N/A,,Overcast,10,2013-02-09 15:13:00
9:25 AM,26.6,24.8,93,29.79,2.5,North,8.1,-,N/A,,Overcast,10,2013-02-09 15:25:00
9:33 AM,26.6,24.8,93,29.79,3.0,North,6.9,-,N/A,,Overcast,10,2013-02-09 15:33:00
9:52 AM,27.0,25.0,92,29.87,5.0,NNE,6.9,-,N/A,,Overcast,20,2013-02-09 15:52:00
10:52 AM,27.0,26.1,96,29.86,9.0,NNE,3.5,-,N/A,,Overcast,30,2013-02-09 16:52:00
11:09 AM,28.4,26.6,93,29.79,10.0,NNE,5.8,-,N/A,,Overcast,30,2013-02-09 17:09:00
11:52 AM,28.0,26.1,92,29.83,9.0,North,5.8,-,N/A,,Overcast,360,2013-02-09 17:52:00
12:52 PM,28.9,26.1,89,29.79,10.0,North,8.1,-,N/A,,Overcast,10,2013-02-09 18:52:00
1:52 PM,28.9,25.0,85,29.78,10.0,NE,6.9,-,N/A,,Overcast,40,2013-02-09 19:52:00
2:52 PM,28.9,25.0,85,29.77,10.0,NE,6.9,-,N/A,,Overcast,40,2013-02-09 20:52:00
3:52 PM,28.9,25.0,85,29.72,10.0,North,11.5,-,N/A,,Overcast,350,2013-02-09 21:52:00
4:52 PM,28.0,25.0,88,29.72,10.0,NNE,13.8,-,N/A,,Overcast,20,2013-02-09 22:52:00
5:52 PM,26.1,24.1,92,29.74,5.0,North,9.2,-,N/A,,Overcast,360,2013-02-09 23:52:00
6:11 PM,26.6,24.8,93,29.67,3.0,North,10.4,-,N/A,,Overcast,360,2013-02-10 00:11:00
6:52 PM,26.1,24.1,92,29.77,4.0,North,11.5,-,N/A,,Overcast,360,2013-02-10 00:52:00
7:52 PM,26.1,24.1,92,29.75,9.0,North,10.4,-,N/A,,Overcast,10,2013-02-10 01:52:00
8:13 PM,26.6,23.0,86,29.64,10.0,NNE,13.8,-,N/A,,Overcast,20,2013-02-10 02:13:00
8:52 PM,27.0,23.0,85,29.69,10.0,North,12.7,20.7,N/A,,Overcast,10,2013-02-10 02:52:00
9:52 PM,27.0,24.1,89,29.67,9.0,North,12.7,-,N/A,,Overcast,10,2013-02-10 03:52:00
9:59 PM,26.6,24.8,93,29.59,5.0,North,15.0,-,0.00,Rain,Light Freezing Rain,10,2013-02-10 03:59:00
10:05 PM,26.6,24.8,93,29.58,2.5,North,17.3,20.7,0.00,Snow,Light Snow,10,2013-02-10 04:05:00
10:20 PM,26.6,24.8,93,29.58,2.0,North,13.8,-,0.02,Snow,Light Snow,10,2013-02-10 04:20:00
10:28 PM,26.6,24.8,93,29.57,3.0,North,15.0,-,0.02,Snow,Light Snow,360,2013-02-10 04:28:00
10:47 PM,26.6,24.8,93,29.55,2.0,North,15.0,21.9,0.03,Snow,Light Snow,10,2013-02-10 04:47:00
10:52 PM,27.0,25.0,92,29.63,2.5,North,12.7,-,0.03,Snow,Light Snow,10,2013-02-10 04:52:00
11:01 PM,26.6,24.8,93,29.55,4.0,North,13.8,-,N/A,,Overcast,10,2013-02-10 05:01:00
11:52 PM,27.0,25.0,92,29.62,3.0,North,12.7,20.7,0.00,,Overcast,360,2013-02-10 05:52:00